User: anonymous   Login
Location: Newark
(5.8900°S, 42.6378°W)
Time: 18:58:16
(UTC+00:00)
Language:

A-11 Canister half - Orbit

View from above orbital plane
View from above orbital plane
View from above satellite
View from above satellite

Ground track
Ground track

The orbit data is extracted from the following two-line orbital elements,

1    53U 60009E   19258.41128574 -.00000082  00000-0  31323-4 0  9997
2    53  47.2787  30.2442 0097187 345.7641  14.0415 12.17228675634944
Epoch (UTC): 15 September 2019 09:52:15
Eccentricity: 0.0097187
inclination: 47.2787°
perigee height: 1527 km
apogee height: 1682 km
right ascension of ascending node: 30.2442°
argument of perigee: 345.7641°
revolutions per day: 12.17228675
mean anomaly at epoch: 14.0415°
orbit number at epoch: 63494

The dashed part of the orbit path shows where the satellite is in the earth's shadow,  

DLR